Weather History for KSQL - June, 2013

Change the Weather History Date:

Thursday, June 27, 2013

  Actual Average Record
Temperature  
Mean Temperature 73 °F -  
Max Temperature 84 °F 81 °F 104 °F (1976)
Min Temperature 62 °F 53 °F 45 °F (1964)
Cooling Degree Days 8    
Growing Degree Days 23 (Base 50)    
Moisture  
Dew Point 58 °F    
Average Humidity 69    
Maximum Humidity 88    
Minimum Humidity 33    
Precipitation  
Precipitation 0.00 in - - ()
Sea Level Pressure  
Sea Level Pressure 30.06 in    
Wind  
Wind Speed 4 mph (NW)    
Max Wind Speed 14 mph    
Max Gust Speed -    
Visibility 10 miles    
Events      
Averages and records for this station are not official NWS values.
T = Trace of Precipitation, MM = Missing Value Source: NWS Daily Summary

Daily Weather History Graph

Daily Weather History Graph

Search for Another Location

Airport or City:

Trip Planner

Search our weather history database for the weather conditions in past years. The results will help you decide how hot, cold, wet, or windy it might be!

Date:

Astronomy

Jun. 27, 2013 Rise Set
Actual Time 5:50 AM PDT 8:34 PM PDT
Civil Twilight 5:18 AM PDT 9:05 PM PDT
Nautical Twilight 4:39 AM PDT 9:44 PM PDT
Astronomical Twilight 3:56 AM PDT 10:28 PM PDT
Moon 11:41 PM PDT (6/27) 10:50 AM PDT (6/27)
Length of Visible Light 15h 46m
Length of Day
14h 44m
Waning Gibbous, 75% of the Moon is Illuminated
Jun 27
Waning Gibbous
Jun 29
Last Quarter
Jul 8
New
Jul 15
First Quarter
Jul 22
Full

Hourly Weather History & Observations

Time (PDT) Temp. Heat Index Dew Point Humidity Pressure Visibility Wind Dir Wind Speed Gust Speed Precip Events Conditions
12:10 AM 66.2 °F - 59.0 °F 78% 30.07 in 10.0 mi WNW 6.9 mph - N/A   Clear
12:30 AM 66.2 °F - 59.0 °F 78% 30.07 in 10.0 mi Calm Calm - N/A   Clear
12:55 AM 66.2 °F - 59.0 °F 78% 30.07 in 10.0 mi Calm Calm - N/A   Clear
1:15 AM 66.2 °F - 59.0 °F 78% 30.07 in 10.0 mi NW 4.6 mph - N/A   Clear
1:30 AM 66.2 °F - 59.0 °F 78% 30.06 in 10.0 mi NW 4.6 mph - N/A   Clear
1:50 AM 64.4 °F - 59.0 °F 83% 30.07 in 10.0 mi WNW 3.5 mph - N/A   Clear
2:15 AM 64.4 °F - 59.0 °F 83% 30.07 in 10.0 mi South 3.5 mph - N/A   Clear
2:30 AM 64.4 °F - 59.0 °F 83% 30.07 in 10.0 mi ESE 3.5 mph - N/A   Clear
2:50 AM 64.4 °F - 59.0 °F 83% 30.07 in 10.0 mi SE 3.5 mph - N/A   Clear
3:15 AM 64.4 °F - 60.8 °F 88% 30.06 in 10.0 mi Calm Calm - N/A   Scattered Clouds
3:30 AM 64.4 °F - 59.0 °F 83% 30.06 in 10.0 mi SSW 3.5 mph - N/A   Partly Cloudy
3:50 AM 62.6 °F - 57.2 °F 82% 30.06 in 10.0 mi SW 3.5 mph - N/A   Clear
4:15 AM 62.6 °F - 59.0 °F 88% 30.06 in 10.0 mi Calm Calm - N/A   Clear
4:30 AM 62.6 °F - 59.0 °F 88% 30.06 in 10.0 mi Calm Calm - N/A   Clear
4:50 AM 62.6 °F - 59.0 °F 88% 30.06 in 10.0 mi Calm Calm - N/A   Clear
5:15 AM 62.6 °F - 59.0 °F 88% 30.06 in 10.0 mi Calm Calm - N/A   Clear
5:30 AM 62.6 °F - 59.0 °F 88% 30.06 in 10.0 mi Calm Calm - N/A   Clear
5:50 AM 62.6 °F - 59.0 °F 88% 30.06 in 10.0 mi Calm Calm - N/A   Clear
6:15 AM 62.6 °F - 59.0 °F 88% 30.07 in 10.0 mi Calm Calm - N/A   Clear
6:30 AM 62.6 °F - 59.0 °F 88% 30.07 in 10.0 mi Calm Calm - N/A   Clear
6:50 AM 64.4 °F - 59.0 °F 83% 30.07 in 10.0 mi Calm Calm - N/A   Clear
7:47 AM 66.2 °F - 60.8 °F 83% 30.08 in 10.0 mi Calm Calm - N/A   Scattered Clouds
8:54 AM 68.0 °F - 62.6 °F 83% 30.09 in 10.0 mi NNE 4.6 mph - N/A   Partly Cloudy
9:47 AM 71.6 °F - 64.4 °F 78% 30.09 in 10.0 mi NE 6.9 mph - N/A   Clear
10:47 AM 75.2 °F - 60.8 °F 61% 30.09 in 10.0 mi North 6.9 mph - N/A   Clear
11:47 AM 77.0 °F - 62.6 °F 61% 30.08 in 10.0 mi North 11.5 mph - N/A   Clear
12:47 PM 80.6 °F 80.8 °F 57.2 °F 45% 30.08 in 10.0 mi North 12.7 mph - N/A   Clear
1:47 PM 82.4 °F 81.7 °F 55.4 °F 39% 30.07 in 10.0 mi NNW 11.5 mph - N/A   Clear
2:51 PM 84.2 °F 83.0 °F 55.4 °F 37% 30.06 in 10.0 mi NNW 12.7 mph - N/A   Clear
3:48 PM 84.2 °F 83.0 °F 55.4 °F 37% 30.05 in 10.0 mi NNW 13.8 mph - N/A   Clear
4:49 PM 84.2 °F 83.0 °F 55.4 °F 37% 30.04 in 10.0 mi NW 9.2 mph - N/A   Clear
5:47 PM 84.2 °F 82.8 °F 53.6 °F 35% 30.03 in 10.0 mi WNW 11.5 mph - N/A   Clear
6:47 PM 84.2 °F - 51.8 °F 33% 30.03 in 10.0 mi West 9.2 mph - N/A   Clear
7:47 PM 77.0 °F - 51.8 °F 41% 30.03 in 10.0 mi WNW 10.4 mph - N/A   Clear
8:47 PM 75.2 °F - 53.6 °F 47% 30.03 in 10.0 mi West 8.1 mph - N/A   Clear
9:15 PM 75.2 °F - 51.8 °F 44% 30.04 in 10.0 mi WNW 5.8 mph - N/A   Clear
9:30 PM 73.4 °F - 53.6 °F 50% 30.05 in 10.0 mi West 5.8 mph - N/A   Clear
9:50 PM 73.4 °F - 51.8 °F 47% 30.05 in 10.0 mi West 6.9 mph - N/A   Clear
10:15 PM 71.6 °F - 57.2 °F 60% 30.05 in 10.0 mi North 6.9 mph - N/A   Clear
10:30 PM 68.0 °F - 57.2 °F 68% 30.05 in 10.0 mi North 4.6 mph - N/A   Clear
10:50 PM 68.0 °F - 57.2 °F 68% 30.06 in 10.0 mi NW 3.5 mph - N/A   Clear
11:35 PM 66.2 °F - 57.2 °F 73% 30.05 in 10.0 mi Calm Calm - N/A   Clear
11:50 PM 66.2 °F - 57.2 °F 73% 30.05 in 10.0 mi Calm Calm - N/A   Clear